ITASAT 1 (43786 NORAD) Tracking and Keplerian Element Data

This shows tracking and keplerian element data for the satellite.

Feedback or suggestion? Click here.




ElementValue
Catalog43786
NameITASAT 1
Epoch Orbit658
Epoch Day16.79113183
Epoch Year2019
RAAN90.5242
Inclination97.7651
Eccentricity0.0016583
Argument of Perigee116.5087
Mean Anonmoly243.7836
Mean Motion14.95044489
Decay Rate-3E-08
L11 43786U 18099AE 19016.79113183 -.00000003 00000-0 50383-5 0 9993
L22 43786 97.7651 90.5242 0016583 116.5087 243.7836 14.95044489 6588

Live tracking and technical data element details for ITASAT 1 (NORAD 43786). ITASAT 1 can be tracked NOW for your location showing map with azimuth and elevation plus other details from your city location.

Track the satellite on the map from your city or location and see movement details for azimuth, elevation, latitude, longitude, range, height, and movement on the map or in text.







IsCatalogInMostPopularTable: catalog: 43786, numindb: 17
Update: records affected: 1



GetName: 43786 ITASAT 1

Hit Count: updated at: Thu, 17 Jan 2019 15:54:57 GMT